Year,Month,Day,Hour,Minute,Value (Times are PST for temperature in C)
2007,07,26,00,00,13.70
2007,07,26,00,01,13.60
2007,07,26,00,02,13.60
2007,07,26,00,03,13.60
2007,07,26,00,04,13.60
2007,07,26,00,05,13.50
2007,07,26,00,06,13.50
2007,07,26,00,07,13.50
2007,07,26,00,08,13.50
2007,07,26,00,09,13.50
2007,07,26,00,10,13.40
2007,07,26,00,11,13.40
2007,07,26,00,12,13.40
2007,07,26,00,13,13.40
2007,07,26,00,14,13.40
2007,07,26,00,15,13.40
2007,07,26,00,16,13.30
2007,07,26,00,17,13.30
2007,07,26,00,18,13.30
2007,07,26,00,19,13.30
2007,07,26,00,20,13.30
2007,07,26,00,21,13.30
2007,07,26,00,22,13.30
2007,07,26,00,23,13.30
2007,07,26,00,24,13.30
2007,07,26,00,25,13.30
2007,07,26,00,26,13.30
2007,07,26,00,27,13.30
2007,07,26,00,28,13.30
2007,07,26,00,29,13.30
2007,07,26,00,30,13.30
2007,07,26,00,31,13.30
2007,07,26,00,32,13.30
2007,07,26,00,33,13.30
2007,07,26,00,34,13.30
2007,07,26,00,35,13.30
2007,07,26,00,36,13.30
2007,07,26,00,37,13.30
2007,07,26,00,38,13.30
2007,07,26,00,39,13.30
2007,07,26,00,40,13.30
2007,07,26,00,41,13.30
2007,07,26,00,42,13.30
2007,07,26,00,43,13.30
2007,07,26,00,44,13.30
2007,07,26,00,45,13.30
2007,07,26,00,46,13.30
2007,07,26,00,47,13.30
2007,07,26,00,48,13.30
2007,07,26,00,49,13.30
2007,07,26,00,50,13.30
2007,07,26,00,51,13.30
2007,07,26,00,52,13.30
2007,07,26,00,53,13.30
2007,07,26,00,54,13.30
2007,07,26,00,55,13.30
2007,07,26,00,56,13.30
2007,07,26,00,57,13.30
2007,07,26,00,58,13.30
2007,07,26,00,59,13.30
2007,07,26,01,00,13.30
2007,07,26,01,01,13.30
2007,07,26,01,02,13.30
2007,07,26,01,03,13.30
2007,07,26,01,04,13.30
2007,07,26,01,05,13.30
2007,07,26,01,06,13.30
2007,07,26,01,07,13.30
2007,07,26,01,08,13.30
2007,07,26,01,09,13.30
2007,07,26,01,10,13.30
2007,07,26,01,11,13.30
2007,07,26,01,12,13.30
2007,07,26,01,13,13.30
2007,07,26,01,14,13.30
2007,07,26,01,15,13.30
2007,07,26,01,16,13.30
2007,07,26,01,17,13.30
2007,07,26,01,18,13.30
2007,07,26,01,19,13.30
2007,07,26,01,20,13.30
2007,07,26,01,21,13.30
2007,07,26,01,22,13.20
2007,07,26,01,23,13.20
2007,07,26,01,24,13.20
2007,07,26,01,25,13.20
2007,07,26,01,26,13.20
2007,07,26,01,27,13.10
2007,07,26,01,28,13.10
2007,07,26,01,29,13.10
2007,07,26,01,30,13.10
2007,07,26,01,31,13.10
2007,07,26,01,32,13.20
2007,07,26,01,33,13.10
2007,07,26,01,34,13.10
2007,07,26,01,35,13.10
2007,07,26,01,36,13.10
2007,07,26,01,37,13.10
2007,07,26,01,38,13.10
2007,07,26,01,39,13.10
2007,07,26,01,40,13.20
2007,07,26,01,41,13.20
2007,07,26,01,42,13.20
2007,07,26,01,43,13.20
2007,07,26,01,44,13.20
2007,07,26,01,45,13.10
2007,07,26,01,46,13.10
2007,07,26,01,47,13.10
2007,07,26,01,48,13.10
2007,07,26,01,49,13.10
2007,07,26,01,50,13.10
2007,07,26,01,51,13.10
2007,07,26,01,52,13.10
2007,07,26,01,53,13.00
2007,07,26,01,54,13.00
2007,07,26,01,55,13.00
2007,07,26,01,56,13.00
2007,07,26,01,57,13.00
2007,07,26,01,58,13.00
2007,07,26,01,59,13.00
2007,07,26,02,00,13.00
2007,07,26,02,01,13.00
2007,07,26,02,02,13.00
2007,07,26,02,03,13.00
2007,07,26,02,04,13.00
2007,07,26,02,05,13.00
2007,07,26,02,06,13.00
2007,07,26,02,07,13.00
2007,07,26,02,08,13.00
2007,07,26,02,09,13.00
2007,07,26,02,10,13.00
2007,07,26,02,11,13.00
2007,07,26,02,12,12.90
2007,07,26,02,13,12.90
2007,07,26,02,14,12.90
2007,07,26,02,15,12.90
2007,07,26,02,16,12.90
2007,07,26,02,17,12.90
2007,07,26,02,18,12.90
2007,07,26,02,19,12.80
2007,07,26,02,20,12.80
2007,07,26,02,21,12.80
2007,07,26,02,22,12.80
2007,07,26,02,23,12.80
2007,07,26,02,24,12.80
2007,07,26,02,25,12.80
2007,07,26,02,26,12.80
2007,07,26,02,27,12.80
2007,07,26,02,28,12.80
2007,07,26,02,29,12.80
2007,07,26,02,30,12.80
2007,07,26,02,31,12.80
2007,07,26,02,32,12.80
2007,07,26,02,33,12.80
2007,07,26,02,34,12.80
2007,07,26,02,35,12.80
2007,07,26,02,36,12.80
2007,07,26,02,37,12.80
2007,07,26,02,38,12.80
2007,07,26,02,39,12.80
2007,07,26,02,40,12.80
2007,07,26,02,41,12.80
2007,07,26,02,42,12.70
2007,07,26,02,43,12.70
2007,07,26,02,44,12.70
2007,07,26,02,45,12.70
2007,07,26,02,46,12.70
2007,07,26,02,47,12.70
2007,07,26,02,48,12.70
2007,07,26,02,49,12.70
2007,07,26,02,50,12.70
2007,07,26,02,51,12.70
2007,07,26,02,52,12.70
2007,07,26,02,53,12.70
2007,07,26,02,54,12.70
2007,07,26,02,55,12.70
2007,07,26,02,56,12.70
2007,07,26,02,57,12.70
2007,07,26,02,58,12.70
2007,07,26,02,59,12.60
2007,07,26,03,00,12.60
2007,07,26,03,01,12.70
2007,07,26,03,02,12.70
2007,07,26,03,03,12.70
2007,07,26,03,04,12.70
2007,07,26,03,05,12.70
2007,07,26,03,06,12.70
2007,07,26,03,07,12.70
2007,07,26,03,08,12.60
2007,07,26,03,09,12.70
2007,07,26,03,10,12.70
2007,07,26,03,11,12.70
2007,07,26,03,12,12.60
2007,07,26,03,13,12.60
2007,07,26,03,14,12.60
2007,07,26,03,15,12.60
2007,07,26,03,16,12.60
2007,07,26,03,17,12.60
2007,07,26,03,18,12.60
2007,07,26,03,19,12.60
2007,07,26,03,20,12.60
2007,07,26,03,21,12.60
2007,07,26,03,22,12.50
2007,07,26,03,23,12.50
2007,07,26,03,24,12.50
2007,07,26,03,25,12.50
2007,07,26,03,26,12.50
2007,07,26,03,27,12.50
2007,07,26,03,28,12.50
2007,07,26,03,29,12.50
2007,07,26,03,30,12.50
2007,07,26,03,31,12.50
2007,07,26,03,32,12.50
2007,07,26,03,33,12.50
2007,07,26,03,34,12.40
2007,07,26,03,35,12.40
2007,07,26,03,36,12.40
2007,07,26,03,37,12.40
2007,07,26,03,38,12.30
2007,07,26,03,39,12.30
2007,07,26,03,40,12.30
2007,07,26,03,41,12.30
2007,07,26,03,42,12.30
2007,07,26,03,43,12.30
2007,07,26,03,44,12.20
2007,07,26,03,45,12.20
2007,07,26,03,46,12.20
2007,07,26,03,47,12.20
2007,07,26,03,48,12.10
2007,07,26,03,49,12.10
2007,07,26,03,50,12.10
2007,07,26,03,51,12.10
2007,07,26,03,52,12.10
2007,07,26,03,53,12.00
2007,07,26,03,54,12.00
2007,07,26,03,55,12.00
2007,07,26,03,56,12.00
2007,07,26,03,57,12.00
2007,07,26,03,58,12.00
2007,07,26,03,59,12.00
2007,07,26,04,00,12.00
2007,07,26,04,01,12.00
2007,07,26,04,02,12.00
2007,07,26,04,03,12.10
2007,07,26,04,04,12.10
2007,07,26,04,05,12.10
2007,07,26,04,06,12.10
2007,07,26,04,07,12.10
2007,07,26,04,08,12.10
2007,07,26,04,09,12.10
2007,07,26,04,10,12.10
2007,07,26,04,11,12.10
2007,07,26,04,12,12.10
2007,07,26,04,13,12.10
2007,07,26,04,14,12.10
2007,07,26,04,15,12.10
2007,07,26,04,16,12.10
2007,07,26,04,17,12.10
2007,07,26,04,18,12.10
2007,07,26,04,19,12.10
2007,07,26,04,20,12.00
2007,07,26,04,21,12.00
2007,07,26,04,22,12.00
2007,07,26,04,23,12.00
2007,07,26,04,24,12.00
2007,07,26,04,25,12.00
2007,07,26,04,26,12.00
2007,07,26,04,27,12.00
2007,07,26,04,28,12.00
2007,07,26,04,29,11.90
2007,07,26,04,30,11.90
2007,07,26,04,31,11.90
2007,07,26,04,32,11.90
2007,07,26,04,33,11.90
2007,07,26,04,34,11.90
2007,07,26,04,35,11.90
2007,07,26,04,36,11.90
2007,07,26,04,37,11.80
2007,07,26,04,38,11.80
2007,07,26,04,39,11.80
2007,07,26,04,40,11.80
2007,07,26,04,41,11.80
2007,07,26,04,42,11.80
2007,07,26,04,43,11.80
2007,07,26,04,44,11.80
2007,07,26,04,45,11.80
2007,07,26,04,46,11.80
2007,07,26,04,47,11.80
2007,07,26,04,48,11.80
2007,07,26,04,49,11.80
2007,07,26,04,50,11.80
2007,07,26,04,51,11.80
2007,07,26,04,52,11.80
2007,07,26,04,53,11.80
2007,07,26,04,54,11.80
2007,07,26,04,55,11.80
2007,07,26,04,56,11.80
2007,07,26,04,57,11.80
2007,07,26,04,58,11.70
2007,07,26,04,59,11.70
2007,07,26,05,00,11.70
2007,07,26,05,01,11.70
2007,07,26,05,02,11.70
2007,07,26,05,03,11.70
2007,07,26,05,04,11.70
2007,07,26,05,05,11.70
2007,07,26,05,06,11.80
2007,07,26,05,07,11.80
2007,07,26,05,08,11.80
2007,07,26,05,09,11.80
2007,07,26,05,10,11.80
2007,07,26,05,11,11.80
2007,07,26,05,12,11.80
2007,07,26,05,13,11.80
2007,07,26,05,14,11.80
2007,07,26,05,15,11.80
2007,07,26,05,16,11.80
2007,07,26,05,17,11.90
2007,07,26,05,18,11.90
2007,07,26,05,19,11.90
2007,07,26,05,20,11.90
2007,07,26,05,21,12.00
2007,07,26,05,22,12.00
2007,07,26,05,23,12.00
2007,07,26,05,24,12.00
2007,07,26,05,25,12.00
2007,07,26,05,26,12.00
2007,07,26,05,27,12.00
2007,07,26,05,28,12.00
2007,07,26,05,29,12.00
2007,07,26,05,30,12.00
2007,07,26,05,31,12.00
2007,07,26,05,32,12.00
2007,07,26,05,33,12.00
2007,07,26,05,34,12.00
2007,07,26,05,35,12.00
2007,07,26,05,36,12.00
2007,07,26,05,37,12.00
2007,07,26,05,38,12.00
2007,07,26,05,39,12.00
2007,07,26,05,40,12.00
2007,07,26,05,41,11.90
2007,07,26,05,42,11.90
2007,07,26,05,43,11.90
2007,07,26,05,44,11.90
2007,07,26,05,45,11.90
2007,07,26,05,46,11.90
2007,07,26,05,47,11.90
2007,07,26,05,48,11.90
2007,07,26,05,49,11.90
2007,07,26,05,50,11.90
2007,07,26,05,51,11.90
2007,07,26,05,52,11.90
2007,07,26,05,53,11.90
2007,07,26,05,54,11.90
2007,07,26,05,55,11.90
2007,07,26,05,56,11.90
2007,07,26,05,57,11.90
2007,07,26,05,58,12.00
2007,07,26,05,59,12.00
2007,07,26,06,00,12.00
2007,07,26,06,01,12.00
2007,07,26,06,02,12.10
2007,07,26,06,03,12.10
2007,07,26,06,04,12.10
2007,07,26,06,05,12.10
2007,07,26,06,06,12.10
2007,07,26,06,07,12.10
2007,07,26,06,08,12.20
2007,07,26,06,09,12.20
2007,07,26,06,10,12.20
2007,07,26,06,11,12.20
2007,07,26,06,12,12.20
2007,07,26,06,13,12.20
2007,07,26,06,14,12.20
2007,07,26,06,15,12.10
2007,07,26,06,16,12.10
2007,07,26,06,17,12.10
2007,07,26,06,18,12.10
2007,07,26,06,19,12.10
2007,07,26,06,20,12.00
2007,07,26,06,21,12.00
2007,07,26,06,22,12.00
2007,07,26,06,23,12.00
2007,07,26,06,24,12.00
2007,07,26,06,25,12.00
2007,07,26,06,26,11.90
2007,07,26,06,27,11.90
2007,07,26,06,28,11.90
2007,07,26,06,29,11.90
2007,07,26,06,30,11.90
2007,07,26,06,31,11.90
2007,07,26,06,32,11.80
2007,07,26,06,33,11.80
2007,07,26,06,34,11.80
2007,07,26,06,35,11.80
2007,07,26,06,36,11.80
2007,07,26,06,37,11.80
2007,07,26,06,38,11.80
2007,07,26,06,39,11.80
2007,07,26,06,40,11.80
2007,07,26,06,41,11.80
2007,07,26,06,42,11.80
2007,07,26,06,43,11.80
2007,07,26,06,44,11.80
2007,07,26,06,45,11.80
2007,07,26,06,46,11.80
2007,07,26,06,47,11.80
2007,07,26,06,48,11.80
2007,07,26,06,49,11.80
2007,07,26,06,50,11.80
2007,07,26,06,51,11.80
2007,07,26,06,52,11.80
2007,07,26,06,53,11.90
2007,07,26,06,54,11.90
2007,07,26,06,55,11.90
2007,07,26,06,56,11.90
2007,07,26,06,57,12.00
2007,07,26,06,58,12.00
2007,07,26,06,59,12.00
2007,07,26,07,00,12.10
2007,07,26,07,01,12.10
2007,07,26,07,02,12.20
2007,07,26,07,03,12.20
2007,07,26,07,04,12.30
2007,07,26,07,05,12.30
2007,07,26,07,06,12.30
2007,07,26,07,07,12.30
2007,07,26,07,08,12.30
2007,07,26,07,09,12.40
2007,07,26,07,10,12.40
2007,07,26,07,11,12.50
2007,07,26,07,12,12.50
2007,07,26,07,13,12.50
2007,07,26,07,14,12.60
2007,07,26,07,15,12.60
2007,07,26,07,16,12.60
2007,07,26,07,17,12.70
2007,07,26,07,18,12.70
2007,07,26,07,19,12.70
2007,07,26,07,20,12.80
2007,07,26,07,21,12.80
2007,07,26,07,22,12.80
2007,07,26,07,23,12.80
2007,07,26,07,24,12.80
2007,07,26,07,25,12.80
2007,07,26,07,26,12.90
2007,07,26,07,27,12.90
2007,07,26,07,28,13.00
2007,07,26,07,29,13.00
2007,07,26,07,30,13.00
2007,07,26,07,31,13.00
2007,07,26,07,32,13.10
2007,07,26,07,33,13.10
2007,07,26,07,34,13.10
2007,07,26,07,35,13.10
2007,07,26,07,36,13.10
2007,07,26,07,37,13.10
2007,07,26,07,38,13.10
2007,07,26,07,39,13.20
2007,07,26,07,40,13.20
2007,07,26,07,41,13.30
2007,07,26,07,42,13.30
2007,07,26,07,43,13.40
2007,07,26,07,44,13.50
2007,07,26,07,45,13.60
2007,07,26,07,46,13.60
2007,07,26,07,47,13.80
2007,07,26,07,48,13.90
2007,07,26,07,49,14.10
2007,07,26,07,50,14.30
2007,07,26,07,51,14.40
2007,07,26,07,52,14.50
2007,07,26,07,53,14.60
2007,07,26,07,54,14.80
2007,07,26,07,55,14.80
2007,07,26,07,56,15.00
2007,07,26,07,57,15.10
2007,07,26,07,58,15.20
2007,07,26,07,59,15.30
2007,07,26,08,00,15.40
2007,07,26,08,01,15.50
2007,07,26,08,02,15.50
2007,07,26,08,03,15.60
2007,07,26,08,04,15.70
2007,07,26,08,05,15.80
2007,07,26,08,06,15.80
2007,07,26,08,07,15.90
2007,07,26,08,08,16.00
2007,07,26,08,09,16.10
2007,07,26,08,10,16.10
2007,07,26,08,11,16.20
2007,07,26,08,12,16.30
2007,07,26,08,13,16.30
2007,07,26,08,14,16.30
2007,07,26,08,15,16.40
2007,07,26,08,16,16.40
2007,07,26,08,17,16.40
2007,07,26,08,18,16.40
2007,07,26,08,19,16.60
2007,07,26,08,20,16.60
2007,07,26,08,21,16.70
2007,07,26,08,22,16.70
2007,07,26,08,23,16.80
2007,07,26,08,24,16.80
2007,07,26,08,25,16.90
2007,07,26,08,26,17.00
2007,07,26,08,27,17.00
2007,07,26,08,28,17.10
2007,07,26,08,29,17.10
2007,07,26,08,30,17.20
2007,07,26,08,31,17.30
2007,07,26,08,32,17.30
2007,07,26,08,33,17.40
2007,07,26,08,34,17.50
2007,07,26,08,35,17.60
2007,07,26,08,36,17.60
2007,07,26,08,37,17.60
2007,07,26,08,38,17.60
2007,07,26,08,39,17.70
2007,07,26,08,40,17.70
2007,07,26,08,41,17.80
2007,07,26,08,42,17.80
2007,07,26,08,43,17.90
2007,07,26,08,44,17.90
2007,07,26,08,45,18.10
2007,07,26,08,46,18.10
2007,07,26,08,47,18.20
2007,07,26,08,48,18.20
2007,07,26,08,49,18.20
2007,07,26,08,50,18.20
2007,07,26,08,51,18.30
2007,07,26,08,52,18.30
2007,07,26,08,53,18.30
2007,07,26,08,54,18.40
2007,07,26,08,55,18.40
2007,07,26,08,56,18.50
2007,07,26,08,57,18.50
2007,07,26,08,58,18.50
2007,07,26,08,59,18.60
2007,07,26,09,00,18.70
2007,07,26,09,01,18.80
2007,07,26,09,02,18.90
2007,07,26,09,03,18.90
2007,07,26,09,04,18.90
2007,07,26,09,05,18.90
2007,07,26,09,06,18.90
2007,07,26,09,07,18.90
2007,07,26,09,08,19.00
2007,07,26,09,09,19.10
2007,07,26,09,10,19.10
2007,07,26,09,11,19.20
2007,07,26,09,12,19.20
2007,07,26,09,13,19.20
2007,07,26,09,14,19.20
2007,07,26,09,15,19.30
2007,07,26,09,16,19.30
2007,07,26,09,17,19.40
2007,07,26,09,18,19.50
2007,07,26,09,19,19.50
2007,07,26,09,20,19.60
2007,07,26,09,21,19.60
2007,07,26,09,22,19.60
2007,07,26,09,23,19.70
2007,07,26,09,24,19.70
2007,07,26,09,25,19.70
2007,07,26,09,26,19.80
2007,07,26,09,27,19.90
2007,07,26,09,28,19.90
2007,07,26,09,29,20.00
2007,07,26,09,30,20.20
2007,07,26,09,31,20.20
2007,07,26,09,32,20.30
2007,07,26,09,33,20.30
2007,07,26,09,34,20.30
2007,07,26,09,35,20.40
2007,07,26,09,36,20.50
2007,07,26,09,37,20.60
2007,07,26,09,38,20.70
2007,07,26,09,39,20.80
2007,07,26,09,40,20.90
2007,07,26,09,41,21.00
2007,07,26,09,42,21.00
2007,07,26,09,43,21.00
2007,07,26,09,44,21.00
2007,07,26,09,45,21.00
2007,07,26,09,46,21.00
2007,07,26,09,47,21.00
2007,07,26,09,48,21.10
2007,07,26,09,49,21.10
2007,07,26,09,50,21.20
2007,07,26,09,51,21.30
2007,07,26,09,52,21.30
2007,07,26,09,53,21.30
2007,07,26,09,54,21.30
2007,07,26,09,55,21.30
2007,07,26,09,56,21.20
2007,07,26,09,57,21.20
2007,07,26,09,58,21.10
2007,07,26,09,59,21.10
2007,07,26,10,00,21.00
2007,07,26,10,01,21.00
2007,07,26,10,02,20.90
2007,07,26,10,03,21.00
2007,07,26,10,04,21.00
2007,07,26,10,05,21.10
2007,07,26,10,06,21.10
2007,07,26,10,07,21.30
2007,07,26,10,08,21.30
2007,07,26,10,09,21.30
2007,07,26,10,10,21.20
2007,07,26,10,11,21.10
2007,07,26,10,12,21.10
2007,07,26,10,13,21.10
2007,07,26,10,14,21.00
2007,07,26,10,15,21.00
2007,07,26,10,16,21.00
2007,07,26,10,17,21.10
2007,07,26,10,18,21.10
2007,07,26,10,19,21.20
2007,07,26,10,20,21.30
2007,07,26,10,21,21.40
2007,07,26,10,22,21.60
2007,07,26,10,23,21.70
2007,07,26,10,24,21.80
2007,07,26,10,25,21.90
2007,07,26,10,26,21.90
2007,07,26,10,27,22.00
2007,07,26,10,28,21.90
2007,07,26,10,29,21.90
2007,07,26,10,30,21.90
2007,07,26,10,31,21.90
2007,07,26,10,32,22.00
2007,07,26,10,33,22.00
2007,07,26,10,34,22.10
2007,07,26,10,35,22.20
2007,07,26,10,36,22.20
2007,07,26,10,37,22.20
2007,07,26,10,38,22.30
2007,07,26,10,39,22.30
2007,07,26,10,40,22.30
2007,07,26,10,41,22.40
2007,07,26,10,42,22.30
2007,07,26,10,43,22.40
2007,07,26,10,44,22.40
2007,07,26,10,45,22.50
2007,07,26,10,46,22.50
2007,07,26,10,47,22.50
2007,07,26,10,48,22.50
2007,07,26,10,49,22.50
2007,07,26,10,50,22.60
2007,07,26,10,51,22.60
2007,07,26,10,52,22.50
2007,07,26,10,53,22.50
2007,07,26,10,54,22.50
2007,07,26,10,55,22.40
2007,07,26,10,56,22.40
2007,07,26,10,57,22.40
2007,07,26,10,58,22.40
2007,07,26,10,59,22.40
2007,07,26,11,00,22.40
2007,07,26,11,01,22.40
2007,07,26,11,02,22.50
2007,07,26,11,03,22.50
2007,07,26,11,04,22.60
2007,07,26,11,05,22.70
2007,07,26,11,06,22.60
2007,07,26,11,07,22.60
2007,07,26,11,08,22.60
2007,07,26,11,09,22.50
2007,07,26,11,10,22.40
2007,07,26,11,11,22.30
2007,07,26,11,12,22.30
2007,07,26,11,13,22.30
2007,07,26,11,14,22.30
2007,07,26,11,15,22.30
2007,07,26,11,16,22.30
2007,07,26,11,17,22.40
2007,07,26,11,18,22.50
2007,07,26,11,19,22.60
2007,07,26,11,20,22.70
2007,07,26,11,21,22.70
2007,07,26,11,22,22.60
2007,07,26,11,23,22.60
2007,07,26,11,24,22.60
2007,07,26,11,25,22.60
2007,07,26,11,26,22.70
2007,07,26,11,27,22.70
2007,07,26,11,28,22.70
2007,07,26,11,29,22.70
2007,07,26,11,30,22.80
2007,07,26,11,31,22.80
2007,07,26,11,32,22.90
2007,07,26,11,33,23.00
2007,07,26,11,34,23.10
2007,07,26,11,35,23.20
2007,07,26,11,36,23.20
2007,07,26,11,37,23.20
2007,07,26,11,38,23.20
2007,07,26,11,39,23.10
2007,07,26,11,40,22.90
2007,07,26,11,41,22.90
2007,07,26,11,42,22.90
2007,07,26,11,43,22.90
2007,07,26,11,44,22.90
2007,07,26,11,45,22.90
2007,07,26,11,46,22.80
2007,07,26,11,47,22.80
2007,07,26,11,48,22.80
2007,07,26,11,49,22.70
2007,07,26,11,50,22.70
2007,07,26,11,51,22.60
2007,07,26,11,52,22.60
2007,07,26,11,53,22.70
2007,07,26,11,54,22.70
2007,07,26,11,55,22.70
2007,07,26,11,56,22.70
2007,07,26,11,57,22.80
2007,07,26,11,58,22.80
2007,07,26,11,59,22.90
2007,07,26,12,00,22.80
2007,07,26,12,01,22.90
2007,07,26,12,02,22.90
2007,07,26,12,03,22.80
2007,07,26,12,04,22.90
2007,07,26,12,05,22.90
2007,07,26,12,06,22.90
2007,07,26,12,07,22.90
2007,07,26,12,08,22.90
2007,07,26,12,09,22.90
2007,07,26,12,10,23.10
2007,07,26,12,11,23.20
2007,07,26,12,12,23.20
2007,07,26,12,13,23.20
2007,07,26,12,14,23.30
2007,07,26,12,15,23.20
2007,07,26,12,16,23.10
2007,07,26,12,17,22.90
2007,07,26,12,18,22.90
2007,07,26,12,19,22.80
2007,07,26,12,20,22.70
2007,07,26,12,21,22.70
2007,07,26,12,22,22.60
2007,07,26,12,23,22.60
2007,07,26,12,24,22.70
2007,07,26,12,25,22.80
2007,07,26,12,26,22.90
2007,07,26,12,27,22.90
2007,07,26,12,28,23.00
2007,07,26,12,29,23.10
2007,07,26,12,30,23.20
2007,07,26,12,31,23.30
2007,07,26,12,32,23.30
2007,07,26,12,33,23.30
2007,07,26,12,34,23.30
2007,07,26,12,35,23.30
2007,07,26,12,36,23.30
2007,07,26,12,37,23.30
2007,07,26,12,38,23.30
2007,07,26,12,39,23.40
2007,07,26,12,40,23.40
2007,07,26,12,41,23.40
2007,07,26,12,42,23.40
2007,07,26,12,43,23.40
2007,07,26,12,44,23.40
2007,07,26,12,45,23.30
2007,07,26,12,46,23.30
2007,07,26,12,47,23.30
2007,07,26,12,48,23.40
2007,07,26,12,49,23.50
2007,07,26,12,50,23.60
2007,07,26,12,51,23.70
2007,07,26,12,52,23.80
2007,07,26,12,53,23.80
2007,07,26,12,54,23.90
2007,07,26,12,55,24.00
2007,07,26,12,56,24.10
2007,07,26,12,57,24.20
2007,07,26,12,58,24.20
2007,07,26,12,59,24.10
2007,07,26,13,00,24.10
2007,07,26,13,01,24.10
2007,07,26,13,02,24.10
2007,07,26,13,03,24.10
2007,07,26,13,04,24.10
2007,07,26,13,05,24.10
2007,07,26,13,06,24.10
2007,07,26,13,07,24.10
2007,07,26,13,08,24.10
2007,07,26,13,09,24.20
2007,07,26,13,10,24.20
2007,07,26,13,11,24.20
2007,07,26,13,12,24.20
2007,07,26,13,13,24.30
2007,07,26,13,14,24.40
2007,07,26,13,15,24.40
2007,07,26,13,16,24.40
2007,07,26,13,17,24.40
2007,07,26,13,18,24.40
2007,07,26,13,19,24.40
2007,07,26,13,20,24.20
2007,07,26,13,21,24.20
2007,07,26,13,22,24.10
2007,07,26,13,23,24.10
2007,07,26,13,24,24.10
2007,07,26,13,25,24.10
2007,07,26,13,26,24.00
2007,07,26,13,27,23.80
2007,07,26,13,28,23.70
2007,07,26,13,29,23.70
2007,07,26,13,30,23.80
2007,07,26,13,31,23.90
2007,07,26,13,32,24.00
2007,07,26,13,33,24.10
2007,07,26,13,34,24.10
2007,07,26,13,35,24.10
2007,07,26,13,36,24.10
2007,07,26,13,37,24.20
2007,07,26,13,38,24.30
2007,07,26,13,39,24.40
2007,07,26,13,40,24.40
2007,07,26,13,41,24.40
2007,07,26,13,42,24.40
2007,07,26,13,43,24.40
2007,07,26,13,44,24.40
2007,07,26,13,45,24.40
2007,07,26,13,46,24.40
2007,07,26,13,47,24.40
2007,07,26,13,48,24.40
2007,07,26,13,49,24.40
2007,07,26,13,50,24.50
2007,07,26,13,51,24.60
2007,07,26,13,52,24.70
2007,07,26,13,53,24.70
2007,07,26,13,54,24.70
2007,07,26,13,55,24.70
2007,07,26,13,56,24.60
2007,07,26,13,57,24.60
2007,07,26,13,58,24.70
2007,07,26,13,59,24.70
2007,07,26,14,00,24.70
2007,07,26,14,01,24.80
2007,07,26,14,02,24.90
2007,07,26,14,03,25.00
2007,07,26,14,04,25.20
2007,07,26,14,05,25.20
2007,07,26,14,06,25.30
2007,07,26,14,07,25.30
2007,07,26,14,08,25.20
2007,07,26,14,09,25.20
2007,07,26,14,10,25.20
2007,07,26,14,11,25.30
2007,07,26,14,12,25.30
2007,07,26,14,13,25.30
2007,07,26,14,14,25.40
2007,07,26,14,15,25.50
2007,07,26,14,16,25.50
2007,07,26,14,17,25.50
2007,07,26,14,18,25.50
2007,07,26,14,19,25.40
2007,07,26,14,20,25.30
2007,07,26,14,21,25.20
2007,07,26,14,22,25.00
2007,07,26,14,23,25.00
2007,07,26,14,24,25.00
2007,07,26,14,25,25.10
2007,07,26,14,26,25.10
2007,07,26,14,27,25.20
2007,07,26,14,28,25.30
2007,07,26,14,29,25.30
2007,07,26,14,30,25.30
2007,07,26,14,31,25.30
2007,07,26,14,32,25.30
2007,07,26,14,33,25.40
2007,07,26,14,34,25.40
2007,07,26,14,35,25.50
2007,07,26,14,36,25.50
2007,07,26,14,37,25.60
2007,07,26,14,38,25.60
2007,07,26,14,39,25.60
2007,07,26,14,40,25.60
2007,07,26,14,41,25.40
2007,07,26,14,42,25.30
2007,07,26,14,43,25.30
2007,07,26,14,44,25.30
2007,07,26,14,45,25.40
2007,07,26,14,46,25.40
2007,07,26,14,47,25.60
2007,07,26,14,48,25.60
2007,07,26,14,49,25.70
2007,07,26,14,50,25.80
2007,07,26,14,51,25.90
2007,07,26,14,52,25.90
2007,07,26,14,53,26.00
2007,07,26,14,54,26.00
2007,07,26,14,55,26.00
2007,07,26,14,56,26.00
2007,07,26,14,57,25.90
2007,07,26,14,58,25.80
2007,07,26,14,59,25.70
2007,07,26,15,00,25.70
2007,07,26,15,01,25.70
2007,07,26,15,02,25.70
2007,07,26,15,03,25.70
2007,07,26,15,04,25.80
2007,07,26,15,05,25.90
2007,07,26,15,06,25.90
2007,07,26,15,07,26.00
2007,07,26,15,08,26.10
2007,07,26,15,09,26.30
2007,07,26,15,10,26.40
2007,07,26,15,11,26.50
2007,07,26,15,12,26.60
2007,07,26,15,13,26.60
2007,07,26,15,14,26.60
2007,07,26,15,15,26.40
2007,07,26,15,16,26.20
2007,07,26,15,17,25.90
2007,07,26,15,18,25.70
2007,07,26,15,19,25.60
2007,07,26,15,20,25.50
2007,07,26,15,21,25.50
2007,07,26,15,22,25.60
2007,07,26,15,23,25.60
2007,07,26,15,24,25.70
2007,07,26,15,25,25.80
2007,07,26,15,26,25.80
2007,07,26,15,27,25.90
2007,07,26,15,28,26.00
2007,07,26,15,29,26.00
2007,07,26,15,30,26.00
2007,07,26,15,31,25.90
2007,07,26,15,32,25.90
2007,07,26,15,33,25.90
2007,07,26,15,34,26.00
2007,07,26,15,35,26.10
2007,07,26,15,36,26.10
2007,07,26,15,37,26.00
2007,07,26,15,38,26.00
2007,07,26,15,39,26.00
2007,07,26,15,40,25.90
2007,07,26,15,41,26.00
2007,07,26,15,42,25.90
2007,07,26,15,43,25.90
2007,07,26,15,44,25.90
2007,07,26,15,45,25.80
2007,07,26,15,46,25.80
2007,07,26,15,47,25.80
2007,07,26,15,48,25.70
2007,07,26,15,49,25.70
2007,07,26,15,50,25.70
2007,07,26,15,51,25.70
2007,07,26,15,52,25.70
2007,07,26,15,53,25.70
2007,07,26,15,54,25.60
2007,07,26,15,55,25.60
2007,07,26,15,56,25.60
2007,07,26,15,57,25.50
2007,07,26,15,58,25.40
2007,07,26,15,59,25.40
2007,07,26,16,00,25.40
2007,07,26,16,01,25.40
2007,07,26,16,02,25.40
2007,07,26,16,03,25.40
2007,07,26,16,04,25.40
2007,07,26,16,05,25.40
2007,07,26,16,06,25.50
2007,07,26,16,07,25.50
2007,07,26,16,08,25.50
2007,07,26,16,09,25.50
2007,07,26,16,10,25.50
2007,07,26,16,11,25.50
2007,07,26,16,12,25.50
2007,07,26,16,13,25.50
2007,07,26,16,14,25.50
2007,07,26,16,15,25.50
2007,07,26,16,16,25.60
2007,07,26,16,17,25.60
2007,07,26,16,18,25.50
2007,07,26,16,19,25.50
2007,07,26,16,20,25.50
2007,07,26,16,21,25.40
2007,07,26,16,22,25.40
2007,07,26,16,23,25.40
2007,07,26,16,24,25.40
2007,07,26,16,25,25.40
2007,07,26,16,26,25.30
2007,07,26,16,27,25.30
2007,07,26,16,28,25.20
2007,07,26,16,29,25.10
2007,07,26,16,30,25.10
2007,07,26,16,31,25.00
2007,07,26,16,32,25.00
2007,07,26,16,33,25.00
2007,07,26,16,34,24.90
2007,07,26,16,35,24.80
2007,07,26,16,36,24.80
2007,07,26,16,37,24.70
2007,07,26,16,38,24.60
2007,07,26,16,39,24.60
2007,07,26,16,40,24.50
2007,07,26,16,41,24.50
2007,07,26,16,42,24.50
2007,07,26,16,43,24.40
2007,07,26,16,44,24.40
2007,07,26,16,45,24.40
2007,07,26,16,46,24.40
2007,07,26,16,47,24.30
2007,07,26,16,48,24.30
2007,07,26,16,49,24.30
2007,07,26,16,50,24.20
2007,07,26,16,51,24.20
2007,07,26,16,52,24.20
2007,07,26,16,53,24.20
2007,07,26,16,54,24.10
2007,07,26,16,55,24.10
2007,07,26,16,56,24.10
2007,07,26,16,57,24.10
2007,07,26,16,58,24.10
2007,07,26,16,59,24.10
2007,07,26,17,00,24.10
2007,07,26,17,01,24.10
2007,07,26,17,02,24.10
2007,07,26,17,03,24.10
2007,07,26,17,04,24.10
2007,07,26,17,05,24.10
2007,07,26,17,06,24.10
2007,07,26,17,07,24.00
2007,07,26,17,08,23.90
2007,07,26,17,09,23.90
2007,07,26,17,10,23.90
2007,07,26,17,11,23.80
2007,07,26,17,12,23.80
2007,07,26,17,13,23.80
2007,07,26,17,14,23.80
2007,07,26,17,15,23.80
2007,07,26,17,16,23.80
2007,07,26,17,17,23.80
2007,07,26,17,18,23.80
2007,07,26,17,19,23.70